Location: Jaite
(41.2884°N, 81.5737°W)
Time: 18:45:04
(UTC+00:00)

FENGYUN 3A - Pass Details

Date: 18 January 2020
Orbit: 824 x 836 km, 98.4° (Epoch: 15 February)

Event Time Altitude Azimuth Distance (km) Brightness Sun altitude
Rises 10:30:40 0° 16° (NNE) 3,374 7.0 -25.6°
Reaches altitude 10° 10:33:03 10° 19° (NNE) 2,438 6.2 -25.1°
Maximum altitude 10:38:25 65° 101° (ESE) 911 4.0 -24.1°
Drops below altitude 10° 10:43:46 10° 183° (S) 2,429 6.1 -23.1°
Sets 10:46:08 0° 187° (S) 3,360 6.8 -22.7°
